User: anonymous   Login
Location: Unspecified
(0.0000°N, 0.0000°E)
Time: 23:03:22
(UTC+00:00)
Language:

TIANPING 3A-01 - Orbit

View from above orbital plane
View from above orbital plane
View from above satellite
View from above satellite

Ground track
Ground track

The orbit is defined by the following mean orbital elements,

1 61614U          26145.58132962 +.00000000 +00000-0 +21989-3 0 00007
2 61614  97.5221 166.5258 0003115  69.9073 290.2486 15.01012769    06
Epoch (UTC): 25 May 2026 13:57:06
Eccentricity: 0.0003115
inclination: 97.5221°
perigee height: 562 km
apogee height: 566 km
right ascension of ascending node: 166.5258°
argument of perigee: 69.9073°
revolutions per day: 15.01012769
mean anomaly at epoch: 290.2486°

The dashed part of the orbit path shows where the satellite is in the earth's shadow,  

DLR